Location: Foots Cray
(51.4000°N, 0.1167°E)
Time: 00:16:18
(UTC+00:00)

Cosmos 1953 Rocket - Pass Details

Date: 15 May 2026
Orbit: 597 x 628 km, 82.5° (Epoch: 9 June)

Event Time Altitude Azimuth Distance (km) Brightness Sun altitude
Rises 22:11:28 0° 348° (NNW) 2,885 8.6 -15.9°
Reaches altitude 10° 22:13:42 10° 346° (NNW) 1,971 7.4 -16.1°
Maximum altitude 22:18:03 73° 262° (W) 635 3.6 -16.4°
Enters shadow 22:20:13 29° 183° (S) 1,125 4.4 -16.5°
